Regional Weather Roundup
Issued by NWS

Home | Current Version | Previous Version | Graphics & Text | Print | Product List | Glossary On
Versions: 1 2 3 4 5 6 7 8 9 10 11 12 13 14 15 16 17 18 19 20 21 22 23 24 25 26 27 28 29 30 31 32 33 34 35 36 37 38 39 40 41 42 43 44 45 46 47 48 49 50
000
ASUS43 KMPX 281401
RWRMN
WEATHER ROUNDUP FOR MINNESOTA
NATIONAL WEATHER SERVICE TWIN CITIES/CHANHASSEN MN
900 AM CDT FRI AUG 28 2015


NOTE: "FAIR" INDICATES FEW OR NO CLOUDS BELOW 12,000 FEET WITH NO
SIGNIFICANT WEATHER AND/OR OBSTRUCTIONS TO VISIBILITY. N/A MEANS
CURRENT SKY AND/OR WEATHER CONDITIONS ARE NOT AVAILABLE.

MNZ060>063-068>070-281500-
   Twin Cities Metro

CITY           SKY/WX    TMP DP  RH WIND       PRES   REMARKS
TWIN CITIES    CLOUDY    68  62  81 S10       30.02S
ST PAUL        CLOUDY    65  63  93 SE8       30.03R
CRYSTAL        CLOUDY    68  63  84 SE7       30.01R
BLAINE         PTSUNNY   66  64  94 SE3       30.02R
LAKEVILLE      LGT RAIN  63  63 100 S6        30.03S
EDEN PRAIRIE   CLOUDY    67  63  87 SE6       30.01S
SOUTH ST PAUL  CLOUDY    65  63  91 S6        30.03S FOG
LAKE ELMO      FAIR      64  63  94 S7        30.04S
$$
MNZ001>005-007-008-013>017-022>024-027-028-281500-
   Northwest Minnesota

CITY           SKY/WX    TMP DP  RH WIND       PRES   REMARKS
BEMIDJI        CLOUDY    65  65 100 SW8       29.93S FOG
HALLOCK        PTSUNNY   66  63  88 S3        29.87R
ROSEAU         CLOUDY    66  61  82 CALM      29.90R HAZE
WARROAD        CLOUDY    64  61  88 CALM      29.88R FOG
THIEF RVR FALL MOSUNNY  N/A N/A N/A S10       29.87R
CROOKSTON      PTSUNNY   66  64  94 S14       29.89R FOG
FOSSTON        MOSUNNY   64  64 100 S14       29.92S
DETROIT LAKES  PTSUNNY   66  64  94 S7        29.96S
MOORHEAD       CLOUDY    64  63  94 S13       29.93F FOG
PARK RAPIDS    CLOUDY    66  64  93 SW8       29.96S FOG
MAHNOMEN       CLOUDY    66  64  96 S13       29.93F
$$
MNZ006-009>011-018-025>026-281500-
   North Central Minnesota

CITY           SKY/WX    TMP DP  RH WIND       PRES   REMARKS
BAUDETTE       FOG       65  64  97 S8        29.86F VSB 3/4
FLAG ISLAND    CLOUDY    64  64 100 S3        29.85F
INTL FALLS     CLOUDY    65  63  93 VRB5      29.89F
WASKISH        CLOUDY    66  64  94 S5        29.90S
BIG FORK       FOG       64  63  94 S7        29.94S VSB 1
LONGVILLE      FOG       64  64 100 S7        29.95F VSB 3/4
GRAND RAPIDS     N/A     64  61  88 SW5       29.95F
CRANE LAKE     CLOUDY    61  61 100 S3        29.95S
ORR            CLOUDY    63  61  94 CALM      29.92F VSB 1/2
COOK           CLOUDY    63  63 100 S3        29.95S FOG
WALKER         CLOUDY    64  63  97 SW8       29.94F FOG
$$
MNZ012-019>021-037-281500-
   Northeast Minnesota

CITY           SKY/WX    TMP DP  RH WIND       PRES   REMARKS
DULUTH         CLOUDY    63  59  87 SW8       29.97F
ELY            CLOUDY    63  59  88 SW5       29.96S
HIBBING        CLOUDY    61  60  97 S3        29.95F
EVELETH        CLOUDY    63  61  94 SW3       29.97F
DULUTH HARBOR  CLOUDY    63  59  88 SW6       29.98S
TWO HARBORS    CLOUDY    64  59  82 S6        29.95S
SILVER BAY     CLOUDY    63  55  77 CALM      29.95F
GRAND MARAIS     N/A     57  49  74 SW3       29.95F
G MARAIS ARPRT CLOUDY    59  50  72 CALM      29.98F
$$
MNZ029>031-032-039>041-046>048-054>057-064-281500-
   West Central Minnesota

CITY           SKY/WX    TMP DP  RH WIND       PRES   REMARKS
FERGUS FALLS   SUNNY     66  66 100 S9        29.95S
WHEATON        MOSUNNY   64  63  94 S6        29.97R
MORRIS         CLOUDY    64  64 100 SE8       29.97R
ALEXANDRIA     CLOUDY    65  63  93 S12       30.00S
ELBOW LAKE     PTSUNNY   65  64  97 S10       29.96S
WADENA         MOSUNNY   64  63  94 SW7       29.97R
GLENWOOD       MOSUNNY   64  64 100 S6        30.00S
APPLETON         N/A     66  63  88 SE7       29.96F
BENSON         MOSUNNY   64  61  88 S3        29.98F
ORTONVILLE     CLOUDY    64  63  94 SE5       29.96F
MADISON        PTSUNNY   64  63  94 E6        29.97F
WILLMAR        FAIR      66  64  94 CALM      30.00S
$$
MNZ033>034-036-042>043-049>051-058-059-281500-
   Central Minnesota

CITY           SKY/WX    TMP DP  RH WIND       PRES   REMARKS
ST CLOUD       MOSUNNY   63  62  97 SE7       30.00S
SAUK CENTRE    PTSUNNY   64  63  96 CALM      29.99F
PAYNESVILLE    PTSUNNY   64  62  90 CALM      30.00F
AITKIN         PTSUNNY   66  61  82 S8        29.97R
PINE RIVER     CLOUDY    66  64  94 S3        30.00S
BRAINERD       CLOUDY    63  61  93 SW10      29.99R
STAPLES        SUNNY     64  63  94 S7        29.98R
LONG PRAIRIE   PTSUNNY   63  63 100 S8        30.00F
LITTLE FALLS   MOSUNNY   63  61  94 S3        29.99F
LITCHFIELD     PTSUNNY   66  66 100 SE5       30.00S
BUFFALO        CLOUDY    65  61  89 CALM      30.03R
MAPLE LAKE     PTSUNNY   65  64  97 CALM      30.02S
$$
MNZ037-044-045-052-053-281500-
   East Central Minnesota

CITY           SKY/WX    TMP DP  RH WIND       PRES   REMARKS
PRINCETON      PTSUNNY   66  63  88 S5        30.02S
MORA           PTSUNNY   61  61 100 SW5       30.02S
CAMBRIDGE      PTSUNNY   66  57  72 S5        30.00S
RUSH CITY      PTSUNNY   64  62  91 S8        30.02S
MOOSE LAKE     CLOUDY    61  59  94 SW10      29.98R FOG
HINCKLEY       CLOUDY    61  61 100 SW5       30.01R
CLOQUET        CLOUDY    61  57  88 SW7       29.99R
MCGREGOR       MOSUNNY   63  61  94 SW7       29.99R
$$
MNZ071>073-080-081-089-090-097-098-281500-
   Southwest Minnesota

CITY           SKY/WX    TMP DP  RH WIND       PRES   REMARKS
MONTEVIDEO     PTSUNNY   66  66 100 CALM      29.99F
GRANITE FALLS  PTSUNNY   64  63  96 NE3       29.98F
CANBY          CLOUDY    64  63  96 E5        29.98F
MARSHALL       PTSUNNY   64  59  82 SE6       29.97S
REDWOOD FALLS  PTSUNNY   65  63  93 SE8       29.96S
OLIVIA         CLOUDY    63  59  88 SE7       29.97S
PIPESTONE      PTSUNNY   66  63  88 E12       29.94F
WINDOM         CLOUDY    64  63  94 E8        29.96F
WORTHINGTON    PTSUNNY   63  61  94 E9        29.94F
JACKSON        LGT RAIN  63  63 100 E9        29.96S
TRACY          PTSUNNY   66  64  91 E7        29.97S
SLAYTON        CLOUDY    63  63 100 CALM      29.97S
$$
MNZ065>067-074>077-082>085-091>093-281500-
   South Central Minnesota

CITY           SKY/WX    TMP DP  RH WIND       PRES   REMARKS
MANKATO        CLOUDY    64  61  88 E14       30.00F
NEW ULM        CLOUDY    64  64 100 SE8       29.98F
ST JAMES       LGT RAIN  64  64 100 E7        29.98F
FAIRMONT       CLOUDY    63  57  82 E9        29.95F
GLENCOE        CLOUDY    66  65  97 E5        30.00S
FARIBAULT      LGT RAIN  64  63  94 S8        30.05S
OWATONNA       RAIN      64  61  88 SE3       30.05F
WASECA         LGT RAIN  63  61  94 MISG      30.03F
ALBERT LEA     RAIN      63  63 100 E7        30.01F
$$
MNZ078>079-086>088-094>096-281500-
   Southeast Minnesota

CITY           SKY/WX    TMP DP  RH WIND       PRES   REMARKS
ROCHESTER      LGT RAIN  62  61  96 S7        30.09S FOG
RED WING       DRIZZLE   66  61  82 CALM      30.05R
STANTON        LGT RAIN  65  62  90 S5        30.03S
DODGE CENTER   RAIN      63  61  94 S6        30.07S
WINONA         LGT RAIN  63  59  88 CALM      30.07S
AUSTIN         RAIN      63  61  94 SE6       30.05F
PRESTON        LGT RAIN  60  58  94 SW7       30.09S
$$
ABBREVIATIONS USED IN REMARKS
   TC - TEMPERATURES IN CELSIUS
  WCI - WIND CHILL INDEX
   HX - HEAT INDEX
  VSB - VISIBILITY
$$


USA.gov is the U.S. government's official web portal to all federal, state and local government web resources and services.